Regional Weather Roundup
Issued by NWS Wakefield, VA

Home | Current Version | Previous Version | Graphics & Text | Print | Product List | Glossary On
Versions: 1 2 3 4 5 6 7 8 9 10 11 12 13 14 15 16 17 18 19 20 21 22 23 24 25 26 27 28 29 30 31 32 33 34 35 36 37 38 39 40 41 42 43 44 45 46 47 48 49 50
000
ASUS41 KAKQ 041715
RWRAKQ

REGIONAL WEATHER ROUNDUP
NATIONAL WEATHER SERVICE WAKEFIELD VA
100 PM EDT TUE AUG 04 2015

Note: "fair" indicates few or no clouds below 12,000 feet with no
significant weather and/or obstructions to visibility. * = Denotes
station may not report precipitation (e.g., rain,snow,etc.),
thunder or fog.

VAZ042-051-052>054-056-041800-
NORTHERN VIRGINIA

CITY           SKY/WX    TMP DP  RH WIND       PRES   REMARKS
WASH NATIONAL  MOSUNNY   93  66  40 SW10G16   29.92F HX  96
DULLES         MOSUNNY   88  65  46 VRB7      29.93F
FORT BELVOIR   SUNNY     90  69  49 W6        29.92F
QUANTICO       MOSUNNY   91  65  41 SW9       29.93F
FREDERICKSBRG* SUNNY     92  66  42 SW8G16    29.93S HX  95
STAFFORD*      SUNNY     90  59  35 W7        29.97F
WARRENTON      MOSUNNY   91  66  44 W3        29.94S
CULPEPER*      SUNNY     87  66  48 W5        29.94F
MANASSAS*      SUNNY     90  64  43 W5        29.93F
LEESBURG*      SUNNY     88  70  55 W9G18     29.94F
WINCHESTER     SUNNY     88  63  42 SW12G21   29.96S
FRONT ROYAL*   FAIR      84  63  48 W5        29.94F
LURAY*         FAIR      90  63  40 SW9       29.96F
$$

VAZ048-049-060>072-079>083-041800-
CENTRAL AND SOUTH CENTRAL VIRGINIA

CITY           SKY/WX    TMP DP  RH WIND       PRES   REMARKS
RICHMOND       MOSUNNY   92  72  51 SW14G21   29.95F HX  99
CHESTERFIELD*  PTSUNNY   90  66  45 S12       29.96F
PETERSBURG*    SUNNY     91  76  60 SW12      29.97F HX 103
HANOVER        SUNNY     91  68  46 SW9       29.96F HX  95
TAPPAHANNOCK*  SUNNY     89  67  48 S9        29.94F
QUINTON*       PTSUNNY   89  74  62 SW3       29.94F HX  97
CHARLOTTSVILLE SUNNY     88  63  43 VRB3      29.96F
GORDONSVILLE*  FAIR      88  64  45 SW5       29.95S
ORANGE*        SUNNY     91  63  38 S8        29.96F
LOUISA*        SUNNY     91  64  40 S7        29.95S
BUMPASS*       FAIR      90  67  46 W8        29.95F
FARMVILLE*     MOSUNNY   93  65  39 S12G17    29.95F HX  95
CREWE*         FAIR     N/A N/A N/A SW7       29.97F
FORT PICKETT*  FAIR      90  71  54 W12G21    29.97F HX  96
CHASE CITY*    FAIR      91  74  58 S5        29.98F HX 101
CLARKSVILLE*   FAIR      90  72  55 SW8       29.97F HX  96
SOUTH HILL*    SUNNY     89  73  59 SW10      30.03F HX  96
LAWRENCEVILLE* FAIR      90  73  58 SW10      29.97F HX  98
EMPORIA*       MOSUNNY   90  72  55 SW3       29.97F HX  96
$$

VAZ088>098-041800-
SOUTHEAST VIRGINIA

CITY           SKY/WX    TMP DP  RH WIND       PRES   REMARKS
NORFOLK        MOSUNNY   91  71  51 SW17      29.95F HX  97
VIRGINIA BEACH MOSUNNY   94  72  48 SW20G26   29.95F HX 102
NORFOLK NAVAL  PTSUNNY   90  72  55 SW10G21   29.96F HX  97
WEST POINT*    SUNNY     92  71  50 SW10G16   29.96F HX  98
SALUDA*        FAIR      88  75  65 SW9G18    29.94F HX  97
NEWPORT NEWS   SUNNY     90  73  57 SW14      29.95F HX  98
LANGLEY AFB    MOSUNNY   89  75  63 SW13G23   29.94F HX  98
FORT EUSTIS    MOSUNNY   90  71  52 SW10G18   29.93F HX  95
WILLIAMSBURG*  SUNNY     93  75  55 SW12      29.96F HX 104
HR EXEC AP*    FAIR      91  75  59 SW13      29.97F HX 102
FRANKLIN*      PTSUNNY   91  73  53 S12G18    29.96F HX  99
WAKEFIELD      SUNNY     90  73  57 VRB6      29.96F HX  98
$$

VAZ020-022-025-037-045-041800-
WEST CENTRAL AND SOUTHWEST VIRGINIA

CITY           SKY/WX    TMP DP  RH WIND       PRES   REMARKS
STAUNTON*      SUNNY     90  62  39 SW12G20   30.01S
WAYNESBORO*    PTSUNNY   83  63  51 NW5       30.02S
HOT SPRINGS VA MOSUNNY   76  64  65 W9        30.14S
LYNCHBURG      SUNNY     87  66  49 SW8       30.00F
DANVILLE       SUNNY     89  72  56 VRB6      29.98F HX  96
SOUTH BOSTON*  FAIR      88  73  59 S8G16     29.98F HX  96
MARTINSVILLE   SUNNY     92  66  41 W5        30.02F
ROANOKE        MOSUNNY   90  64  42 SW8       30.02S
BLACKSBURG     PTSUNNY   84  67  56 W8        30.10S
DUBLIN*          N/A     85  67  54 NW7       30.08S
MARION*        MOSUNNY   83  67  59 SW10      30.14S
HILLSVILLE*    MOSUNNY   83  64  52 W8        30.10F
RICHLANDS*     PTSUNNY   80  68  68 W5        30.12F
WISE*          PTSUNNY   82  63  51 NW8       30.14S
ABINGDON*      PTSUNNY   84  65  51 NW5       30.10S
$$

MDZ021>025-VAZ099-100-041800-
SOUTHERN MARYLAND AND THE DELMARVA PENINSULA

CITY           SKY/WX    TMP DP  RH WIND       PRES   REMARKS
PATUXENT RIVER MOSUNNY   90  68  48 W13       29.92F
BAY BRIDGE APT   N/A     88  63  42 SW6       29.92S
LEONARDTOWN    SUNNY     88  66  48 SW6       29.94F
DOVER          SUNNY     89  69  52 SW16      29.89S
GEORGETOWN     MOSUNNY   89  71  55 SW14G21   29.91F HX  95
EASTON         MOSUNNY   88  72  58 W5        29.95F
CAMBRIDGE      SUNNY     90  68  48 W8        29.92S
SALISBURY      SUNNY     88  71  57 W13G23    29.92S
OCEAN CITY     SUNNY     93  69  45 W12G21    29.91F HX  98
WALLOPS ISLAND MOSUNNY   88  74  63 W13G23    29.94S HX  96
ACCOMACK*      SUNNY     88  82  84 W15G21    29.95F HX 108
$$

NCZ012>017-030>032-041800-
NORTH CENTRAL AND EASTERN NORTH CAROLINA

CITY           SKY/WX    TMP DP  RH WIND       PRES   REMARKS
ROANOKE RAPIDS FAIR      91  70  49 SW14      29.97F HX  97
RALEIGH        MOSUNNY   92  72  51 VRB6      29.99F HX  99
ELIZABETH CITY MOSUNNY   89  74  60 S16G25    29.99F HX  98
AHOSKIE*       SUNNY     88  71  56 S5G16     29.97F
EDENTON*       LGT RAIN  79  72  80 SW18G30   30.02R
CURRITUCK*     MOSUNNY   90  70  51 S8G18     29.99F HX  95
KILL DEVIL HLS MOSUNNY   90  73  56 SW8G16    30.00S HX  98
MANTEO         RAIN      83  76  79 SW18      30.01F
CAPE HATTERAS  LGT RAIN  79  73  82 SW12G18   30.04F
TARBORO*         N/A     91  73  55 SW9       29.99F HX  98
GOLDSBORO      MOSUNNY   87  74  65 SE8       29.97F
WASHINGTON     PTSUNNY   81  74  81 S5        30.03S
GREENVILLE     PTSUNNY   81  73  78 S18G28    30.03S
NEW BERN       CLOUDY    84  75  74 S8        30.02F
WILMINGTON     CLOUDY    82  73  74 SE12      29.98F
$$

VAZ048-041800-
ELSEWHERE

CITY           SKY/WX    TMP DP  RH WIND       PRES   REMARKS
HARRISBURG PA  SUNNY     86  53  32 W16G26    29.90S
BALTIMORE      MOSUNNY   87  68  52 W10       29.91F
ANNAPOLIS      SUNNY     88  65  46 SW9       29.91S
ANDREWS AFB    SUNNY     91  64  40 SW10      29.92F
PHILADELPHIA   MOSUNNY   90  64  42 W16G23    29.89S
HENDERSON NC   SUNNY     89  67  48 S8        29.99F
GREENSBORO     PTSUNNY   90  68  48 S9        30.00F
ROCKY MOUNT    PTSUNNY   91  71  51 S9G18     29.99F HX  97
$$

VAZ100-041800-
MARINE

STATION/POSITION TIME  TEMP    WIND        PRES    WAVE   SWELL
                       AIR SEA DIR/SP/G            HT/PER HT/PER
                 (UTC) (F)     (DEG/KT/KT) (MB)    (FT/S) (FT/S)
BRANDYWINE LGT   1600   81 76  270/ 10/ 11 1012.8F
CAPE MAY NJ      1600   80 77  240/  8/ 10 1012.3F
LEWES DE         1600   87 72  280/  9/ 16 1012.5F
15NM E FENWICK I 1650   79 79  210/ 16/ 19 1012.8S   5/ 8   3/ 8
OCEAN-CITY-INLET 1600   85 73  250/ 11/ 15 1012.2F
WACHAPREAGUE VA  1618   87 83  250/  8/ 15 1014.3F
GOOSES REEF MD   1700   85 84  250/  4/  4 1014.1F
COVE POINT MD    1600   85     290/  7/ 10 1014.1F
SOLOMONS ISLAND  1600      83                N/A
BISHOPS HEAD MD  1600   82 83  250/  9/ 11 1013.0F
PINEY POINT MD   1600          280/  7/  8   N/A
POTOMAC MD       1700   86 84  260/  8/ 10 1012.3F   1/ 3
CAMBRIDGE MD     1600   84 84  250/  6/ 11 1012.6S
LEWISETTA VA     1600   86 84  260/  6/ 11 1013.3F
RAPPAHANNOCK LGT 1600          210/ 15/ 18 1014.8F
STINGRAY PT      1700   86 83  240/ 14/ 17 1013.9F   1/ 2
YORK RVR RNG VA  1600   85     240/ 17/ 18 1014.0F
YORKTOWN VA      1600   86 84  250/ 14/ 18 1014.3F
JAMESTOWN VA     1700   87 85  280/ 12/ 17   N/A
DOMINION TERM VA 1600   85     240/ 13/ 16 1014.9F
KIPTOPEKE VA     1600      82  250/ 12/ 16   N/A
CHES BAY BRIDGE  1600   85 79  210/ 16/ 20 1014.3S
CAPE HENRY VA    1600   88     230/ 11/ 18   N/A
CHESAPEAKE LGHT  1600   81     210/ 14/ 15 1015.5F
WILLOUBY STN VA  1600   84     250/ 14/ 16 1015.5F
CAPE HENRY BUOY  1628      77                N/A     3/ 6   2/11
1ST LANDING BUOY 1700      81              1013.9F   2/ 3
CAPE CHARLES BUO 1626      73                N/A     3/ 6   2/11
OFFSHORE WE BUOY 1611      82                N/A     4/ 7   2/ 7
64NM E OF VA BCH 1650   81 81  210/ 16/ 19 1015.2F   4/ 6   2/11
DUCK PIER NC     1600   85 62  220/ 13/ 18 1015.2F
44100 DUCK FRF   1624      79                N/A     3/ 5
44056 DUCK FRF   1611      70                N/A     2/11
OREGON INLET NC  1600   82 81  200/ 16/ 19 1016.8F
HATTERAS NC      1600   79 78  180/  6/ 14 1017.5R
DIAMOND SHLS NC  1650   81 84  190/ 12/ 14 1017.6R   4/ 7   3/ 7
CAPE LOOKOUT NC  1700   82     200/ 12/ 14 1016.2F
$$



USA.gov is the U.S. government's official web portal to all federal, state and local government web resources and services.